EW9945 Weather Reports


time (UTC)temp
C
wind
direction
speed
KPH
gust
KPH
rain 1hr
cm
rain 24hr
cm
rain mn
cm
humidity
%
barometer
mb
20260506030054 14 158 3.2 6.4 0.00 0.33 0.33 84 1006.8
20260506024534 14 164 0.0 0.0 0.00 0.33 0.33 85 1007.0
20260506023030 14 165 0.0 0.0 0.00 0.33 0.33 86 1007.0
20260506021531 14 165 0.0 0.0 0.00 0.33 0.33 87 1007.0
20260506020027 14 165 0.0 0.0 0.00 0.33 0.33 87 1006.8
20260506014525 15 165 0.0 0.0 0.00 0.33 0.33 84 1006.6
20260506013024 15 165 0.0 0.0 0.00 0.33 0.33 82 1006.6
20260506011531 16 165 0.0 0.0 0.00 0.33 0.33 81 1006.4
20260506010022 16 165 0.0 0.0 0.00 0.33 0.33 79 1006.1
20260506004540 16 165 0.0 0.0 0.00 0.33 0.33 79 1006.1
20260506003031 17 165 0.0 0.0 0.00 0.33 0.33 77 1006.0
20260506001523 17 165 0.0 0.0 0.00 0.33 0.33 77 1005.8
20260506000024 17 165 0.0 0.0 0.00 0.33 0.33 75 1005.7
20260505234520 17 165 0.0 0.0 0.00 0.33 0.33 76 1005.6
20260505233023 18 165 0.0 0.0 0.00 0.33 0.33 71 1005.7
20260505231526 18 121 0.0 0.0 0.00 0.33 0.33 71 1005.8
20260505230021 18 121 0.0 0.0 0.00 0.33 0.33 73 1005.6
20260505224517 18 121 0.0 0.0 0.00 0.33 0.33 72 1005.6
20260505223017 18 121 0.0 0.0 0.00 0.33 0.33 76 1005.8
20260505221519 19 121 0.0 0.0 0.00 0.33 0.33 74 1005.5
20260505220017 18 121 0.0 0.0 0.00 0.33 0.33 77 1005.3
20260505214517 18 121 0.0 0.0 0.05 0.33 0.33 79 1005.2
20260505213016 17 121 0.0 0.0 0.08 0.33 0.33 83 1005.2
20260505211516 16 121 0.0 0.0 0.08 0.33 0.33 84 1005.0
20260505210016 16 121 0.0 0.0 0.08 0.33 0.33 82 1005.1
20260505204516 18 155 1.6 22.5 0.05 0.30 0.30 70 1005.4
20260505203024 20 121 0.0 19.3 0.00 0.25 0.25 59 1004.6
20260505201515 21 327 1.6 25.7 0.00 0.25 0.25 57 1004.5
20260505200015 22 311 3.2 24.1 0.00 0.25 0.25 50 1004.4
20260505194513 21 342 6.4 12.9 0.00 0.25 0.25 62 1004.7
20260505193014 20 311 0.0 3.2 0.13 0.25 0.25 73 1004.9
20260505191513 18 311 0.0 12.9 0.18 0.25 0.25 79 1005.2
20260505190021 17 309 0.0 8.0 0.18 0.25 0.25 85 1005.3
20260505184517 16 307 4.8 12.9 0.18 0.25 0.25 84 1005.4
20260505183010 17 318 12.9 40.2 0.13 0.20 0.20 72 1005.6
20260505181510 22 123 4.8 17.7 0.00 0.08 0.08 43 1004.3
20260505180009 23 153 6.4 24.1 0.00 0.08 0.08 42 1003.9
20260505174506 23 113 1.6 14.5 0.00 0.08 0.08 43 1004.2
20260505173004 22 201 1.6 22.5 0.00 0.08 0.08 45 1004.4
20260505171505 22 33 0.0 14.5 0.00 0.08 0.08 45 1004.7
20260505170002 21 140 4.8 17.7 0.00 0.08 0.08 48 1005.0
20260505164502 21 132 3.2 22.5 0.00 0.08 0.08 49 1005.0
20260505163002 21 153 1.6 20.9 0.00 0.08 0.08 49 1004.8
20260505161603 21 138 1.6 12.9 0.00 0.08 0.08 48 1004.8
20260505153105 21 301 4.8 22.5 0.00 0.08 0.08 47 1005.5
20260505151558 22 343 4.8 17.7 0.00 0.08 0.08 46 1005.7
20260505124534 18 120 0.0 6.4 0.00 0.08 0.08 61 1006.0
20260505123042 17 146 0.0 19.3 0.00 0.08 0.08 64 1006.1
20260505121529 16 165 0.0 16.1 0.00 0.08 0.08 68 1006.4
20260505120038 15 105 0.0 19.3 0.00 0.08 0.08 71 1006.4
20260505114525 15 151 1.6 17.7 0.00 0.08 0.08 71 1006.2
20260505113021 15 109 0.0 11.3 0.00 0.08 0.08 75 1006.2
20260505111529 13 116 0.0 6.4 0.00 0.08 0.08 78 1005.9
20260505101514 13 111 0.0 6.4 0.08 0.08 0.08 79 1005.5
20260505100012 13 128 3.2 14.5 0.08 0.08 0.08 79 1005.5
20260505094508 15 121 6.4 29.0 0.08 0.08 0.08 72 1005.8
20260505093005 15 111 1.6 12.9 0.00 0.00 0.00 67 1005.6
20260505091501 15 107 4.8 12.9 0.00 0.00 0.00 66 1005.5
20260505090001 15 106 0.0 6.4 0.00 0.00 0.00 64 1005.7
20260505084501 15 103 0.0 12.9 0.00 0.00 0.00 64 1005.9
20260505083001 15 138 0.0 8.0 0.00 0.00 0.00 63 1005.7
20260505081501 16 106 0.0 12.9 0.00 0.00 0.00 62 1005.2
20260505080106 15 123 0.0 17.7 0.00 0.00 0.00 63 1005.4
20260505074600 15 119 0.0 11.3 0.00 0.00 0.00 63 1005.3
20260505073103 16 117 4.8 12.9 0.00 0.00 0.00 62 1005.2
20260505071615 16 114 0.0 6.4 0.00 0.00 0.00 63 1005.4
20260505070104 16 168 0.0 8.0 0.00 0.00 0.00 62 1005.3
20260505064610 16 145 1.6 9.7 0.00 0.00 0.00 62 1005.3
20260505063101 16 149 1.6 8.0 0.00 0.00 0.00 62 1005.5
20260505061604 16 148 0.0 6.4 0.00 0.00 0.00 62 1005.4
20260505060103 16 143 0.0 8.0 0.00 0.00 0.00 62 1005.6
20260505054601 16 186 0.0 16.1 0.00 0.00 0.00 61 1005.8
20260505053059 16 121 1.6 9.7 0.00 0.00 0.00 61 1006.0
20260505051557 16 131 1.6 14.5 0.00 0.00 0.00 60 1006.1
20260505041603 17 148 0.0 8.0 0.00 0.00 0.00 58 1006.2
20260505040057 16 94 1.6 9.7 0.00 0.00 0.00 57 1006.1
20260505034555 17 177 1.6 11.3 0.00 0.00 0.00 55 1006.0
20260505033055 17 114 0.0 12.9 0.00 0.00 0.00 54 1005.9
20260505031555 17 195 0.0 3.2 0.00 0.00 0.00 53 1006.1